Wind_Speed
21 16 16 24 16 24 22 18 14 10 16 12 10 10 10 11 9 8 9 9 9 18 20 21 28 36 39 40 42 42 40 39 39 39 38 36 36 35 38 38 36 39 38 37
10 8 24 20 18 19 24 23 19 18 22 7 6 9 6 8 15 12 8 8 8 19 24 22 24 31 37 40 42 42 41 40 39 36 37 36 35 35 35 37 36 35 35 35
9 7 6 15 26 19 11 17 16 18 19 8 11 8 8 11 9 11 10 9 9 10 20 20 29 36 36 41 43 43 40 40 39 38 36 37 33 34 35 34 33 32 33 34
6 6 9 4 10 9 14 10 11 9 13 11 12 11 10 8 6 4 8 6 8 12 9 24 31 36 42 39 41 42 39 39 41 39 39 35 36 35 33 32 33 34 35 33
6 10 3 8 9 5 7 13 8 1 3 8 10 6 7 10 10 11 8 14 5 10 17 23 34 37 35 35 37 39 36 38 42 41 37 36 34 33 31 29 30 31 31 27
3 7 19 3 6 5 3 2 4 10 9 7 5 3 6 5 3 10 12 18 15 20 22 27 30 36 36 35 33 36 39 38 38 39 35 34 33 30 30 30 29 24 22 23
6 8 4 5 4 4 6 5 4 8 7 6 2 4 5 6 5 6 3 11 20 22 18 25 29 35 31 33 34 35 33 30 33 33 33 33 32 33 32 27 24 21 19 19
1 4 4 6 6 5 5 3 4 4 5 2 3 7 5 7 6 5 5 3 13 9 12 27 29 33 23 24 28 31 31 30 31 32 30 36 36 30 26 24 21 20 21 20
5 2 2 3 7 4 7 3 4 6 7 4 7 7 8 5 6 6 9 8 8 9 12 23 28 27 21 25 34 34 32 32 33 32 32 32 31 31 26 23 23 21 20 18
9 11 7 6 4 7 18 15 13 12 11 13 11 13 13 8 8 8 4 9 15 13 12 11 27 26 32 34 37 36 31 30 32 33 31 28 26 26 25 22 20 19 18 16
5 13 20 10 11 3 21 15 10 12 15 14 16 16 13 13 14 12 7 5 18 17 14 16 26 28 30 32 38 32 30 28 29 29 27 28 24 21 22 19 16 17 16 18
3 6 5 7 12 10 15 14 9 15 17 16 16 13 12 14 13 16 24 12 15 19 26 24 28 28 30 34 39 33 27 24 24 28 28 29 27 23 17 16 12 13 14 16
4 3 9 11 21 16 14 11 11 14 13 12 11 11 12 8 9 19 29 33 20 19 23 27 26 28 29 33 35 30 27 26 26 25 26 25 26 25 21 15 13 13 15 16
4 5 11 19 8 18 19 18 17 18 15 10 9 9 10 11 16 12 9 45 18 24 23 22 23 23 27 28 27 27 25 25 23 22 26 29 30 30 28 23 18 14 14 12
11 12 7 5 15 15 15 16 19 18 16 16 14 9 10 10 13 15 23 14 19 21 20 21 19 21 25 27 23 26 26 23 22 20 19 19 20 22 27 29 23 21 18 16
10 10 5 7 10 8 10 14 14 13 13 14 17 12 16 15 12 13 17 28 15 6 16 18 16 15 15 20 18 20 20 20 21 22 26 27 25 22 20 20 25 25 23 23
3 5 4 7 9 11 8 7 8 8 8 11 12 18 17 15 16 15 18 23 27 25 12 13 15 13 11 14 19 11 7 1 5 15 26 28 27 23 26 27 26 28 29 28
4 5 4 5 6 4 4 5 5 5 7 10 16 19 16 7 8 10 18 22 24 24 23 18 13 11 10 8 9 6 13 13 9 15 20 15 18 16 14 27 22 24 19 22
3 1 4 7 6 4 2 1 4 5 5 13 14 9 16 18 11 12 14 16 15 12 14 12 10 9 10 9 8 12 11 13 11 7 9 15 18 20 22 26 23 24 21 23
3 6 4 7 5 4 3 6 8 10 7 4 4 11 9 15 16 13 10 11 9 4 4 7 6 7 9 7 9 13 12 10 16 21 15 11 19 21 21 20 19 20 18 21
14 11 8 10 10 13 12 7 11 11 16 17 12 6 9 13 17 18 14 5 14 13 10 10 7 6 4 4 4 10 19 20 15 14 11 11 9 5 10 14 14 18 19 20
14 6 7 7 6 8 11 12 12 11 13 14 16 15 14 12 16 19 17 13 13 14 17 14 12 11 8 8 11 4 13 16 17 17 13 7 6 7 7 7 15 17 21 26
8 7 10 10 7 9 7 9 9 12 12 12 13 14 10 11 10 8 4 9 11 11 10 11 11 11 11 11 16 12 12 11 13 14 13 10 6 7 7 5 4 2 3 10
9 17 15 22 19 13 7 12 20 10 9 11 14 16 19 6 6 10 9 7 6 6 5 6 6 9 10 12 15 16 11 9 6 4 4 9 9 4 2 1 2 3 1 3
11 18 19 18 13 8 18 23 21 23 19 19 23 29 26 17 16 16 5 5 5 2 2 3 3 5 10 16 16 14 11 3 3 1 4 12 11 10 10 8 7 4 2 0
16 13 15 20 18 17 17 18 13 16 17 16 20 21 20 26 25 27 24 26 26 20 18 5 6 14 22 24 25 25 23 20 15 10 7 7 8 6 5 5 5 11 8 6
18 19 20 19 22 22 19 21 16 11 21 19 16 17 21 23 26 27 28 28 24 21 12 15 20 20 18 23 22 23 23 21 17 19 19 19 18 16 15 16 18 14 13 8
Wind_Direction
217 212 213 238 248 204 209 215 206 229 231 238 246 224 208 203 203 211 171 224 173 172 174 181 179 183 184 185 185 185 189 193 199 203 207 210 212 211 213 215 219 219 217 215
202 206 224 239 242 238 209 218 228 233 249 228 274 202 236 244 196 174 204 191 178 169 175 179 181 182 182 184 188 187 190 195 199 202 205 209 209 209 210 213 217 218 217 217
207 167 239 251 230 241 253 218 202 217 235 216 254 238 213 232 199 176 191 193 197 170 181 180 184 183 183 185 186 189 193 193 197 200 203 206 206 206 210 208 208 214 215 217
159 129 212 244 186 220 234 249 215 222 207 200 209 222 196 173 157 208 210 201 225 193 164 184 188 186 190 182 185 189 193 194 194 197 202 202 201 203 205 209 205 212 214 214
149 186 287 276 262 223 231 251 237 130 250 221 221 224 249 192 178 189 155 250 184 234 188 178 180 186 184 185 185 188 192 195 194 195 197 197 196 197 199 198 202 207 211 218
157 183 219 155 237 101 71 192 27 87 59 47 53 166 250 30 301 208 186 199 207 225 221 187 179 180 176 181 183 190 196 197 193 192 193 189 187 187 188 194 203 203 191 198
183 205 263 159 247 104 141 204 55 82 75 49 63 189 239 312 324 161 210 203 198 194 178 195 179 173 180 181 189 192 191 187 181 185 180 173 174 178 181 189 184 182 194 195
12 150 239 349 56 167 205 143 128 81 84 60 314 309 285 265 265 122 59 345 202 166 166 178 173 165 168 176 178 174 162 168 162 161 154 158 165 179 174 165 167 178 185 189
352 86 108 316 156 260 316 320 51 62 34 43 29 334 308 304 223 174 119 101 62 128 129 138 155 150 133 138 151 149 144 135 135 139 146 156 154 149 153 161 164 170 175 191
336 1 345 225 351 70 62 47 27 51 55 65 72 30 19 16 45 31 69 120 103 81 72 71 110 120 129 132 133 128 121 124 130 133 138 147 149 151 149 154 161 169 182 186
310 355 347 63 35 216 105 102 14 54 61 59 61 41 28 31 26 17 10 83 111 113 103 96 97 104 116 120 122 114 116 119 120 124 129 127 125 132 146 151 166 176 185 173
59 326 279 342 356 65 84 92 96 65 54 45 53 52 44 37 28 16 9 306 94 98 102 101 98 97 104 118 125 121 115 119 122 127 130 129 124 118 132 146 161 186 190 188
151 188 59 15 33 10 63 70 85 81 78 71 50 50 43 62 49 30 9 304 100 101 102 107 117 114 122 128 130 126 124 131 134 134 136 135 138 138 125 128 138 134 159 167
22 325 24 38 17 357 30 48 51 54 58 69 72 53 54 38 57 62 4 285 86 88 83 97 100 110 128 135 132 134 136 143 144 149 154 158 161 163 162 156 151 149 154 167
65 64 84 102 68 7 16 40 46 37 31 30 40 78 77 65 53 48 310 7 85 92 92 93 95 104 120 129 135 148 146 154 159 163 170 170 170 169 172 164 167 158 163 169
92 71 71 81 78 59 35 31 38 33 31 26 18 33 39 43 59 69 32 40 45 47 87 101 103 106 118 128 129 133 154 178 171 182 189 183 177 176 168 157 166 177 184 181
64 76 33 51 60 61 44 29 37 38 26 22 24 17 54 30 25 28 43 62 53 45 66 89 116 120 116 112 111 116 110 69 125 165 178 184 173 172 170 167 175 182 191 190
144 116 106 84 74 69 41 41 37 29 20 12 21 41 19 33 38 20 36 54 59 58 40 29 47 74 96 69 46 63 180 182 153 167 146 167 171 186 162 173 174 177 184 200
303 197 174 141 164 139 151 59 34 43 52 22 23 25 36 19 51 76 47 44 51 27 35 55 44 27 39 51 52 21 183 187 145 121 157 127 109 118 128 150 159 175 183 187
122 78 90 57 55 66 69 30 2 44 65 214 20 41 40 22 34 57 76 83 93 105 85 54 35 46 22 354 38 88 110 118 121 140 134 108 118 116 127 139 152 167 181 194
97 107 91 70 60 56 56 62 63 47 64 66 65 65 118 91 65 64 66 63 45 46 58 79 65 72 62 44 99 114 119 124 118 98 93 113 113 114 174 166 172 177 187 195
59 54 63 81 82 75 64 61 63 56 53 47 35 54 73 66 81 74 80 73 60 62 64 59 52 49 59 55 8 162 128 128 128 135 125 96 97 98 38 200 215 211 205 196
16 40 58 45 48 49 54 53 46 64 51 51 32 32 99 99 93 79 58 70 74 75 62 50 30 27 28 32 11 131 108 92 107 115 116 122 106 89 81 80 99 110 194 208
34 52 58 44 47 44 32 33 37 55 55 42 31 36 29 72 108 107 97 92 75 102 55 53 37 34 24 10 7 25 160 154 142 142 138 139 141 172 181 134 69 81 85 233
61 57 50 46 34 23 24 23 40 25 33 41 34 31 28 29 20 16 96 43 56 12 342 332 1 4 5 3 347 343 349 65 97 34 329 214 198 202 194 194 203 195 189 312
50 59 57 48 30 21 34 32 23 40 41 27 18 22 31 35 40 33 29 37 39 31 29 315 6 40 41 42 53 51 57 50 49 55 32 54 41 200 189 221 219 197 197 223
57 59 48 36 15 7 34 24 11 34 34 24 5 48 52 44 37 32 30 25 30 51 54 56 56 58 60 51 47 55 55 62 50 50 53 68 67 66 84 75 74 85 87 105
Height
620 621 627 632 634 631 648 652 681 670 671 658 642 641 632 627 626 630 632 634 634 639 645 654 659 667 676 685 693 701 710 717 722 729 736 743 748 752 757 763 766 770 773 777
626 616 619 628 620 622 626 632 642 647 648 629 626 626 629 628 621 624 625 625 627 630 635 644 652 659 666 675 684 692 700 705 715 723 729 735 741 745 750 755 760 765 769 773
635 617 627 647 615 620 621 613 625 645 626 625 629 628 628 624 621 621 620 624 625 627 631 636 644 650 659 664 673 682 689 697 705 713 719 726 733 739 744 749 755 760 765 768
635 629 667 611 590 596 610 608 605 610 612 615 616 613 613 610 611 614 615 616 620 619 625 630 636 643 648 656 665 672 680 687 694 702 709 718 724 730 738 744 749 753 757 761
639 636 622 609 601 603 614 617 598 603 601 599 599 599 605 598 599 602 603 608 607 616 615 622 625 632 644 652 657 665 672 677 683 691 700 709 716 725 731 737 743 747 751 756
630 642 645 609 592 584 587 635 596 597 604 606 601 632 621 602 596 594 594 598 601 605 615 611 617 624 632 640 649 656 662 667 676 685 693 701 710 719 725 732 738 744 748 752
622 628 617 589 587 587 640 639 598 595 597 601 614 612 600 591 592 589 589 591 590 595 602 605 612 617 625 632 639 645 657 665 674 681 688 696 704 712 720 727 734 740 745 749
619 629 639 592 592 616 610 590 591 589 590 596 597 596 591 588 588 584 585 583 584 586 590 596 605 609 621 626 634 647 654 663 670 677 685 691 699 709 717 724 730 738 744 748
626 625 607 605 609 607 602 599 591 595 592 590 597 599 589 585 584 580 583 581 582 581 586 589 599 607 617 626 631 642 653 661 669 676 684 693 701 709 717 722 729 736 740 746
631 610 606 604 605 601 606 616 613 606 602 600 606 603 598 592 590 588 583 582 581 588 594 597 600 609 617 626 631 642 654 663 670 678 688 695 703 708 714 722 728 733 737 741
642 639 628 614 618 615 608 617 626 615 608 610 607 612 614 609 605 604 599 591 582 587 598 607 611 614 623 630 634 646 658 666 673 682 689 695 702 709 716 721 727 731 735 738
659 659 654 652 635 614 617 625 629 617 617 621 617 621 621 620 621 625 624 616 597 601 598 608 616 624 629 636 640 651 663 671 679 686 693 698 704 711 717 722 726 731 734 737
655 655 651 642 633 629 625 629 624 622 624 628 629 624 624 624 626 629 626 599 573 602 612 610 623 627 635 642 646 655 664 675 683 688 692 698 705 710 718 725 728 732 736 739
649 646 646 648 657 650 635 627 628 629 632 634 634 631 629 631 630 631 649 624 608 615 620 623 626 633 637 645 651 662 668 677 683 689 693 696 700 707 713 721 727 732 735 740
656 658 669 669 652 659 654 644 641 646 644 641 638 636 635 640 642 637 643 628 627 628 636 634 639 641 643 647 661 666 669 677 682 689 696 701 707 711 710 708 722 724 732 739
667 668 671 674 663 664 661 657 657 657 656 654 650 643 641 645 648 652 652 640 640 644 647 646 646 645 652 654 664 668 675 679 679 687 694 698 703 709 713 712 716 724 730 735
676 678 674 673 671 669 673 671 668 665 667 661 657 652 651 652 652 655 655 652 651 653 654 655 654 655 659 661 660 669 672 681 683 685 689 695 694 701 707 709 715 720 723 727
676 677 678 676 674 676 677 676 676 673 670 665 663 660 660 661 662 662 661 660 659 660 663 664 664 663 664 665 668 671 677 683 686 688 692 697 695 696 700 705 712 717 721 727
677 676 676 678 679 679 680 679 676 674 672 669 670 669 668 669 669 668 670 670 672 674 674 672 673 674 673 674 677 677 677 683 683 686 691 694 696 697 700 704 710 715 719 723
676 674 678 678 675 676 678 679 677 672 673 675 678 673 674 675 675 676 678 675 679 678 680 677 678 678 676 679 683 683 680 682 686 689 695 697 699 701 704 707 709 713 716 718
679 680 681 682 683 683 683 682 679 677 679 681 681 682 682 683 682 682 682 684 684 683 680 682 683 682 684 689 691 688 685 687 691 692 695 697 701 703 704 706 711 713 715 718
688 686 685 686 688 687 686 684 685 685 684 684 684 683 683 683 685 686 683 685 685 685 685 686 687 688 689 690 690 687 687 689 689 691 696 699 700 701 703 704 711 713 714 718
696 695 693 693 693 693 693 695 693 690 689 689 688 687 687 688 689 687 688 688 687 687 689 690 690 689 687 688 691 687 688 690 691 693 695 698 701 701 703 706 710 711 713 715
702 700 703 702 701 701 701 697 695 693 693 693 692 691 690 691 692 691 691 691 690 691 691 692 693 691 692 692 691 692 691 690 691 694 696 697 699 703 704 705 707 709 711 712
709 709 709 709 709 707 706 702 700 699 698 698 697 697 696 696 694 693 693 692 692 692 694 695 695 696 696 694 692 691 691 690 692 695 696 696 698 700 701 703 706 708 709 710
717 718 718 717 716 713 712 709 708 708 707 704 702 703 703 701 699 698 696 696 695 697 695 694 698 699 699 698 695 694 693 693 693 694 696 697 697 699 698 701 703 704 706 708
721 720 717 718 717 716 716 713 713 712 711 709 707 706 707 706 705 703 703 702 702 700 702 701 703 703 703 703 704 701 699 699 701 699 701 699 699 700 698 702 702 701 704 704